Location: Antichan
(42.9728°N, 0.6667°E)
Time: 18:16:51
(UTC+00:00)

COSMOS 2428 - Pass Details

Date: 15 August 2020
Orbit: 844 x 859 km, 70.9° (Epoch: 17 September)

Event Time Altitude Azimuth Distance (km) Brightness Sun altitude
Rises 22:32:13 0° 336° (NNW) 3,436 7.1 -29.8°
Reaches altitude 10° 22:34:42 10° 339° (NNW) 2,498 6.1 -30.0°
Enters shadow 22:39:48 64° 21° (NNE) 948 3.0 -30.3°
